This is the latest recevied weather packets stored in our database for station/object IU3NMQ-10. If no packets are shown the sender has not sent any weather packets the latest 10 day(s).
| Time | Temp. | Humidity | Pressure | Rain* | Wind** | Luminosity | Snow |
|---|---|---|---|---|---|---|---|
| 1787603761 | 26.67° C | 60% | 1011 hPa | - | - | - | - |
| 1787602860 | 27.22° C | 59% | 1011.2 hPa | - | - | - | - |
| 1787601960 | 27.22° C | 59% | 1010.9 hPa | - | - | - | - |
| 1787601060 | 27.78° C | 58% | 1010.8 hPa | - | - | - | - |
| 1787600160 | 27.78° C | 58% | 1010.9 hPa | - | - | - | - |
| 1787599258 | 27.78° C | 58% | 1010.8 hPa | - | - | - | - |
| 1787598358 | 27.78° C | 57% | 1010.9 hPa | - | - | - | - |
| 1787597458 | 28.33° C | 58% | 1010.7 hPa | - | - | - | - |
| 1787596558 | 28.33° C | 57% | 1010.6 hPa | - | - | - | - |
| 1787595658 | 28.33° C | 56% | 1010.7 hPa | - | - | - | - |
| 1787594758 | 28.89° C | 53% | 1010.8 hPa | - | - | - | - |
| 1787593858 | 29.44° C | 50% | 1010.8 hPa | - | - | - | - |
| 1787592958 | 30° C | 51% | 1010.9 hPa | - | - | - | - |
| 1787592057 | 30° C | 48% | 1011 hPa | - | - | - | - |
| 1787591157 | 30.56° C | 45% | 1011.1 hPa | - | - | - | - |
| 1787590257 | 31.11° C | 43% | 1010.9 hPa | - | - | - | - |
| 1787589357 | 31.67° C | 42% | 1011 hPa | - | - | - | - |
| 1787588457 | 31.67° C | 43% | 1011 hPa | - | - | - | - |
| 1787587557 | 32.22° C | 41% | 1011.1 hPa | - | - | - | - |
| 1787586657 | 32.22° C | 41% | 1011.3 hPa | - | - | - | - |
| 1787585757 | 32.22° C | 40% | 1011.5 hPa | - | - | - | - |
| 1787584856 | 33.33° C | 40% | 1011.7 hPa | - | - | - | - |
| 1787583956 | 33.33° C | 39% | 1011.7 hPa | - | - | - | - |
| 1787583056 | 33.89° C | 39% | 1011.7 hPa | - | - | - | - |
| 1787582156 | 33.89° C | 40% | 1011.9 hPa | - | - | - | - |
* Rain since midnight (hover to see other rain measurements)
** Current wind speed in m/s (hover to see current wind gust speed)